Weather History for KNTU - March, 2013

Change the Weather History Date:

Saturday, March 2, 2013

  Actual Average Record
Temperature  
Mean Temperature 38 °F -  
Max Temperature 42 °F 53 °F 79 °F (1997)
Min Temperature 33 °F 36 °F 24 °F (2009)
Degree Days  
Heating Degree Days 27    
Moisture  
Dew Point 25 °F    
Average Humidity 58    
Maximum Humidity 65    
Minimum Humidity 47    
Precipitation  
Precipitation 0.00 in - - ()
Sea Level Pressure  
Sea Level Pressure 29.86 in    
Wind  
Wind Speed 11 mph (NW)    
Max Wind Speed 15 mph    
Max Gust Speed 21 mph    
Visibility 10 miles    
Events      
Averages and records for this station are not official NWS values.
T = Trace of Precipitation, MM = Missing Value Source: NWS Daily Summary

Daily Weather History Graph

Daily Weather History Graph

Search for Another Location

Airport or City:

Trip Planner

Search our weather history database for the weather conditions in past years. The results will help you decide how hot, cold, wet, or windy it might be!

Date:

Astronomy

Mar. 02, 2013 Rise Set
Actual Time 6:33 AM EST 5:59 PM EST
Civil Twilight 6:07 AM EST 6:25 PM EST
Nautical Twilight 5:37 AM EST 6:55 PM EST
Astronomical Twilight 5:07 AM EST 7:25 PM EST
Moon 11:27 PM EST (3/2) 9:08 AM EST (3/2)
Length of Visible Light 12h 18m
Length of Day
11h 26m
Waning Gibbous, 74% of the Moon is Illuminated
Mar 2
Waning Gibbous
Mar 4
Last Quarter
Mar 11
New
Mar 19
First Quarter
Mar 27
Full

Hourly Weather History & Observations

Time (EST) Temp. Windchill Dew Point Humidity Pressure Visibility Wind Dir Wind Speed Gust Speed Precip Events Conditions
12:56 AM 42.1 °F 35.2 °F 26.1 °F 53% 29.87 in 10.0 mi NNW 12.7 mph - N/A   Overcast
1:56 AM 41.0 °F 34.3 °F 26.1 °F 55% 29.87 in 10.0 mi NNW 11.5 mph - N/A   Overcast
2:56 AM 39.9 °F 33.9 °F 27.0 °F 60% 29.86 in 10.0 mi NNW 9.2 mph - N/A   Overcast
3:56 AM 39.9 °F 32.9 °F 27.0 °F 60% 29.86 in 10.0 mi NW 11.5 mph - N/A   Overcast
4:56 AM 39.0 °F 32.8 °F 27.0 °F 62% 29.87 in 10.0 mi NW 9.2 mph - N/A   Overcast
5:56 AM 37.9 °F 30.0 °F 27.0 °F 65% 29.86 in 10.0 mi NNW 12.7 mph - N/A   Overcast
6:56 AM 37.9 °F 31.5 °F 27.0 °F 65% 29.87 in 10.0 mi North 9.2 mph - N/A   Overcast
7:56 AM 39.0 °F 34.0 °F 28.0 °F 65% 29.88 in 10.0 mi NNW 6.9 mph - N/A   Overcast
8:56 AM 39.0 °F 32.3 °F 28.0 °F 65% 29.89 in 10.0 mi NNW 10.4 mph - N/A   Overcast
9:56 AM 39.0 °F 32.3 °F 27.0 °F 62% 29.88 in 10.0 mi NNW 10.4 mph - N/A   Overcast
10:56 AM 39.0 °F 31.4 °F 27.0 °F 62% 29.87 in 10.0 mi NNW 12.7 mph - N/A   Overcast
11:56 AM 39.0 °F 31.8 °F 26.1 °F 60% 29.86 in 10.0 mi NW 11.5 mph - N/A   Overcast
12:56 PM 39.9 °F 33.9 °F 27.0 °F 60% 29.84 in 10.0 mi North 9.2 mph - N/A   Overcast
1:56 PM 39.9 °F 36.7 °F 26.1 °F 58% 29.83 in 10.0 mi Variable 4.6 mph - N/A   Overcast
2:56 PM 41.0 °F 33.1 °F 21.9 °F 47% 29.82 in 10.0 mi West 15.0 mph - N/A   Overcast
3:56 PM 41.0 °F 33.1 °F 23.0 °F 49% 29.82 in 10.0 mi WNW 15.0 mph - N/A   Overcast
4:56 PM 39.9 °F 32.9 °F 23.0 °F 51% 29.82 in 10.0 mi WNW 11.5 mph - N/A   Mostly Cloudy
5:56 PM 39.0 °F 32.3 °F 21.9 °F 50% 29.84 in 10.0 mi NW 10.4 mph 20.7 mph N/A   Mostly Cloudy
6:56 PM 39.0 °F 32.3 °F 21.9 °F 50% 29.85 in 10.0 mi WNW 10.4 mph - N/A   Overcast
7:56 PM 37.9 °F 30.9 °F 23.0 °F 55% 29.85 in 10.0 mi NW 10.4 mph - N/A   Overcast
8:56 PM 37.9 °F 32.7 °F 21.9 °F 53% 29.86 in 10.0 mi NW 6.9 mph - N/A   Overcast
9:56 PM 35.1 °F 29.3 °F 23.0 °F 61% 29.87 in 10.0 mi NW 6.9 mph - N/A   Partly Cloudy
10:56 PM 34.0 °F 28.8 °F 21.9 °F 61% 29.86 in 10.0 mi WNW 5.8 mph - N/A   Partly Cloudy
11:56 PM 33.1 °F 27.7 °F 21.9 °F 64% 29.86 in 10.0 mi WNW 5.8 mph - N/A   Mostly Cloudy